Weather History for Whiteman AFB, MO

Change the Weather History Date:

Monday, February 24, 2014

  Actual Average Record
Temperature  
Mean Temperature 28 °F -  
Max Temperature 37 °F 44 °F 77 °F (2002)
Min Temperature 20 °F 27 °F 6 °F (2003)
Degree Days  
Heating Degree Days 36    
Moisture  
Dew Point 13 °F    
Average Humidity 54    
Maximum Humidity 78    
Minimum Humidity 29    
Precipitation  
Precipitation 0.00 in - - ()
Sea Level Pressure  
Sea Level Pressure 30.31 in    
Wind  
Wind Speed 7 mph (ENE)    
Max Wind Speed 13 mph    
Max Gust Speed -    
Visibility 10 miles    
Events      
Averages and records for this station are not official NWS values.
T = Trace of Precipitation, MM = Missing Value Source: NWS Daily Summary

Daily Weather History Graph

Daily Weather History Graph

Search for Another Location

Airport:

Trip Planner

Search our weather history database for the weather conditions in past years. The results will help you decide how hot, cold, wet, or windy it might be!

Date:

Astronomy

Feb. 24, 2014 Rise Set
Actual Time 6:53 AM CST 6:01 PM CST
Civil Twilight 6:26 AM CST 6:28 PM CST
Nautical Twilight 5:55 AM CST 6:59 PM CST
Astronomical Twilight 5:25 AM CST 7:30 PM CST
Moon 2:50 AM CST (2/24) 1:05 PM CST (2/24)
Length of Visible Light 12h 02m
Length of Day
11h 08m
Waning Crescent, 28% of the Moon is Illuminated
Feb 24
Waning Crescent
Mar 1
New
Mar 8
First Quarter
Mar 16
Full
Mar 23
Last Quarter

Hourly Weather History & Observations

Time (CST) Temp. Windchill Dew Point Humidity Pressure Visibility Wind Dir Wind Speed Gust Speed Precip Events Conditions
12:58 AM 21.2 °F 14.9 °F 15.3 °F 78% 30.38 in 10.0 mi North 4.6 mph - N/A   Clear
1:58 AM 23.0 °F 15.8 °F 15.1 °F 72% 30.35 in 10.0 mi NE 5.8 mph - N/A   Clear
2:58 AM 20.8 °F 13.2 °F 13.3 °F 73% 30.35 in 10.0 mi NNE 5.8 mph - N/A   Clear
3:58 AM 21.0 °F 12.4 °F 13.5 °F 73% 30.37 in 10.0 mi NNE 6.9 mph - N/A   Scattered Clouds
4:58 AM 21.0 °F 12.4 °F 12.9 °F 71% 30.38 in 10.0 mi NNE 6.9 mph - N/A   Clear
5:58 AM 21.4 °F 15.1 °F 12.2 °F 68% 30.39 in 10.0 mi NE 4.6 mph - N/A   Clear
6:58 AM 21.0 °F - 12.6 °F 70% 30.38 in 10.0 mi ESE 2.3 mph - N/A   Scattered Clouds
7:58 AM 23.5 °F 16.4 °F 14.7 °F 69% 30.40 in 10.0 mi East 5.8 mph - N/A   Scattered Clouds
8:58 AM 26.4 °F 17.3 °F 13.3 °F 58% 30.41 in 10.0 mi East 9.2 mph - N/A   Overcast
9:58 AM 28.9 °F 22.8 °F 12.2 °F 50% 30.40 in 10.0 mi East 5.8 mph - N/A   Overcast
10:58 AM 32.0 °F 25.6 °F 7.7 °F 36% 30.39 in 10.0 mi East 6.9 mph - N/A   Overcast
11:58 AM 33.1 °F 27.7 °F 6.8 °F 33% 30.37 in 10.0 mi East 5.8 mph - N/A   Overcast
12:58 PM 35.4 °F 30.5 °F 6.4 °F 30% 30.32 in 10.0 mi ESE 5.8 mph - N/A   Mostly Cloudy
1:58 PM 37.2 °F 30.0 °F 7.2 °F 29% 30.27 in 10.0 mi East 10.4 mph - N/A   Mostly Cloudy
2:58 PM 37.4 °F 29.3 °F 7.9 °F 29% 30.24 in 10.0 mi ENE 12.7 mph - N/A   Mostly Cloudy
3:58 PM 37.6 °F 30.5 °F 10.9 °F 33% 30.23 in 10.0 mi ENE 10.4 mph - N/A   Scattered Clouds
4:58 PM 35.4 °F 28.4 °F 13.6 °F 41% 30.21 in 10.0 mi ENE 9.2 mph - N/A   Overcast
5:58 PM 34.3 °F 26.5 °F 15.1 °F 45% 30.20 in 10.0 mi ENE 10.4 mph - N/A   Overcast
6:58 PM 34.0 °F 27.2 °F 15.4 °F 47% 30.21 in 10.0 mi ENE 8.1 mph - N/A   Overcast
7:58 PM 31.6 °F 22.6 °F 15.4 °F 51% 30.22 in 10.0 mi NE 11.5 mph - N/A   Overcast
8:58 PM 30.9 °F 23.5 °F 16.3 °F 55% 30.23 in 10.0 mi ENE 8.1 mph - N/A   Overcast
9:58 PM 30.2 °F 21.9 °F 16.0 °F 56% 30.25 in 10.0 mi NE 9.2 mph - N/A   Overcast
10:58 PM 29.1 °F 20.6 °F 16.7 °F 60% 30.27 in 10.0 mi NNE 9.2 mph - N/A   Overcast
11:58 PM 28.9 °F 23.9 °F 15.8 °F 58% 30.26 in 10.0 mi ENE 4.6 mph - N/A   Overcast